Location: Noordwijk
(52.2400°N, 4.4500°E)
Time: 08:30:16
(UTC+00:00)

YUBILEINY - Visible Passes

Search period start: 27 November 2022 00:00
Search period end: 07 December 2022 00:00
Orbit: 1479 x 1508 km, 82.5° (Epoch: 26 November)

Date Brightness Start Highest point End Pass type
(mag) Time Alt. Az. Time Alt. Az. Time Alt. Az.
27 Nov ? 01:11:17 24° NNE 01:11:17 24° NNE 01:14:10 10° NNE visible
27 Nov ? 03:07:12 24° NNW 03:07:12 24° NNW 03:10:57 10° N visible
27 Nov ? 05:03:06 11° NNW 05:03:23 11° NNW 05:06:03 10° NNW visible
28 Nov ? 00:22:14 18° NNE 00:22:14 18° NNE 00:24:17 10° NNE visible
28 Nov ? 02:18:09 25° N 02:18:09 25° N 02:21:28 10° N visible
28 Nov ? 04:14:04 16° NNW 04:14:04 16° NNW 04:17:33 10° N visible
28 Nov ? 23:33:09 13° NNE 23:33:09 13° NNE 23:34:08 10° NNE visible
29 Nov ? 01:29:04 23° N 01:29:04 23° N 01:31:51 10° N visible
29 Nov ? 03:24:59 20° NNW 03:24:59 20° NNW 03:28:23 10° N visible
30 Nov ? 00:40:00 19° NNE 00:40:00 19° NNE 00:42:07 10° NNE visible
30 Nov ? 02:35:54 22° N 02:35:54 22° N 02:39:00 10° N visible
30 Nov ? 04:31:49 13° NNW 04:31:49 13° NNW 04:34:33 10° N visible
30 Nov ? 23:50:55 15° NNE 23:50:55 15° NNE 23:52:10 10° NNE visible
01 Dec ? 01:46:49 22° N 01:46:49 22° N 01:49:28 10° N visible
01 Dec ? 03:42:44 17° NNW 03:42:44 17° NNW 03:45:43 10° N visible
01 Dec ? 23:01:49 10° NNE 23:01:49 10° NNE 23:01:52 10° NNE visible
02 Dec ? 00:57:43 20° NNE 00:57:43 20° NNE 00:59:50 10° NNE visible
02 Dec ? 02:53:38 19° NNW 02:53:38 19° NNW 02:56:28 10° N visible
03 Dec ? 00:08:37 16° NNE 00:08:37 16° NNE 00:10:02 10° NNE visible
03 Dec ? 02:04:32 20° N 02:04:32 20° N 02:07:02 10° N visible
03 Dec ? 04:00:26 13° NNW 04:00:26 13° NNW 04:02:52 10° N visible
03 Dec ? 23:19:30 12° NNE 23:19:30 12° NNE 23:20:00 10° NNE visible
04 Dec ? 01:15:25 19° N 01:15:25 19° N 01:17:29 10° N visible
04 Dec ? 03:11:19 17° NNW 03:11:19 17° NNW 03:13:51 10° N visible
05 Dec ? 00:26:16 17° NNE 00:26:16 17° NNE 00:27:48 10° NNE visible
05 Dec ? 02:22:11 18° N 02:22:11 18° N 02:24:32 10° N visible
05 Dec ? 04:18:06 11° NNW 04:18:06 11° NNW 04:19:23 10° NNW visible
05 Dec ? 23:37:09 13° NNE 23:37:09 13° NNE 23:37:57 10° NNE visible
06 Dec ? 01:33:03 18° N 01:33:03 18° N 01:35:03 10° N visible
06 Dec ? 03:28:58 14° NNW 03:28:58 14° NNW 03:31:06 10° N visible
